Starlink 3305

operational
NORAD ID: 50166 Int'l Des: 2021-125 Owner: SPXS Country: US Constellation: starlink
LEOCIRCULAR

About Starlink 3305

Description loading...

Live Position

Loading 3D Globe...

Upcoming Passes

Altitude History

Altitude vs Time

uPlot chart will show altitude changes over time

Two-Line Element Set

1 50166U 21125L 25304.20801495 .00000393 00000-0 42782-4 0 9994
2 50166 53.2147 110.3179 0001644 79.9200 280.1977 15.08839867217049
Epoch: Oct 31, 2025 • Age: 15 hours

Current Status

Altitude 545.0 km
Velocity 7.60 km/s
Sub-Earth Point 52.30°N, 123.1°W
Launch Date Dec 18, 2021
Age 3.8 years
Type internet

Technical Details

Classification Payload
Mass 290.00 kg
Dry Mass 270.00 kg
Total Mass 290.00 kg
Length 0.20 m
Diameter 2.80 m
Span 9.00 m
Shape Box + pan
Manufacturer SPXS
Bus Type Starlink
Phase Status In Orbit
Owner/State SPXS/US

Large Constellations

Loading constellations...